Simultaneous Nadir Overpasses (SNOs) Predictions

Prediction of SNOs between AQUA and METOP-C Satellite Orbit:

Table of predicted SNOs for the next 14.0 days since TLE Epoch: 10/28/2023
Index Date (AQUA) Time (AQUA) Lat,Lon (AQUA) SZA (AQUA ) Date (METOP-C) Time (METOP-C) Lat,Lon (METOP-C) SZA (METOP-C ) Distance(km) Time Diff (sec)
1 10/28/2023 16:02:53 74.77, -63.96 87.87 10/28/2023 16:01:58 74.80, -64.03 87.90 3.19 55
2 10/28/2023 16:52:17 -74.84, 103.52 92.06 10/28/2023 16:52:40 -74.83, 103.39 92.06 3.84 23
3 10/31/2023 09:05:07 -74.83,-139.63 91.19 10/31/2023 09:04:20 -74.80,-139.61 91.22 3.49 47
4 10/31/2023 09:54:33 74.90, 27.84 88.90 10/31/2023 09:54:57 74.89, 27.97 88.89 3.87 24
5 11/03/2023 02:07:20 74.81, 144.91 89.66 11/03/2023 02:06:37 74.84, 144.93 89.69 3.19 43
6 11/03/2023 02:56:44 -74.87, -47.58 90.28 11/03/2023 02:57:19 -74.88, -47.64 90.26 2.21 35
7 11/05/2023 19:09:31 -74.84, 69.33 89.48 11/05/2023 19:08:59 -74.82, 69.30 89.49 1.74 32
8 11/05/2023 19:58:57 74.92,-123.23 90.62 11/05/2023 19:59:36 74.90,-123.14 90.61 3.10 39
9 11/08/2023 12:11:41 74.86, -6.23 91.35 11/08/2023 12:11:15 74.83, -6.23 91.33 2.68 26
10 11/08/2023 13:01:05 -74.91, 161.30 88.60 11/08/2023 13:01:56 -74.93, 161.35 88.57 2.74 51



Historial Predications of SNOs between AQUA and METOP-C
